Regional Weather Roundup
Issued by NWS

Home | Current Version | Previous Version | Graphics & Text | Print | Product List | Glossary On
Versions: 1 2 3 4 5 6 7 8 9 10 11 12 13 14 15 16 17 18 19 20 21 22 23 24 25 26 27
000
ASUS45 KBOU 281807
RWRCO

WEATHER ROUNDUP FOR COLORADO
NATIONAL WEATHER SERVICE DENVER/BOULDER CO
1200 PM MDT SUN MAY 28 2017

NOTE: "FAIR" INDICATES FEW OR NO CLOUDS BELOW 12000 FEET WITH NO
SIGNIFICANT WEATHER AND/OR OBSTRUCTIONS TO VISIBILITY.

COZ001>005-013-030-031-281900-
...NORTHWEST COLORADO...

CITY           SKY/WX    TMP DP  RH WIND       PRES   REMARKS
CRAIG          FAIR      62  30  29 N7        30.34F
HAYDEN         FAIR      57  28  33 SE3       30.35F
MEEKER         FAIR      63  26  24 E6        30.32F
RABBIT EARS PA NOT AVBL
STEAMBOAT SPGS NOT AVBL
WALDEN         NOT AVBL
$$

COZ006>008-011-281900-
...WEST CENTRAL VALLEYS...

CITY           SKY/WX    TMP DP  RH WIND       PRES   REMARKS
GRAND JUNCTION FAIR      69  29  22 S8        30.24F
MONTROSE       FAIR      64  23  21 MISG      30.30F
EAGLE          SUNNY     61  25  25 NW8       30.36F
RIFLE          FAIR      66  27  23 VRB6      30.29F
DELTA          FAIR      68  20  16 SW3       30.28F
NUCLA          FAIR      68  21  17 W6        30.31S
$$

COZ017>023-064>068-281900-
...SOUTHWEST COLORADO...

CITY           SKY/WX    TMP DP  RH WIND       PRES   REMARKS
DURANGO        FAIR      64  18  17 E6        30.30S
CORTEZ         FAIR      68  14  12 W3        30.27S
PAGOSA SPRINGS FAIR      62   8  11 S5        30.35S
TELLURIDE      FAIR      56   1  10 W5        30.40S
WOLF CREEK PAS NOT AVBL
$$

COZ009-010-012-014-032>034-037-058>063-281900-
...CENTRAL COLORADO...

CITY           SKY/WX    TMP DP  RH WIND       PRES   REMARKS
ASPEN          FAIR      57  27  31 E8        30.35F
BUENA VISTA    FAIR      56  12  17 CALM      30.37F
COPPER MTN     NOT AVBL
BERTHOUD PASS  NOT AVBL
COTTONWOOD PAS NOT AVBL
GUNNISON       FAIR      57  15  19 VRB3      30.36
KREMMLING      NOT AVBL
LEADVILLE      FAIR      45   9  23 VRB3      30.43S
SALIDA         FAIR      60  18  19 SE7       30.43F
SUNLIGHT       NOT AVBL
WILKERSON PASS NOT AVBL
$$

COZ069>075-281900-
...SAN LUIS VALLEY/SANGRE DE CRISTO MOUNTAINS...

CITY           SKY/WX    TMP DP  RH WIND       PRES   REMARKS
ALAMOSA        FAIR      57  20  23 S6        30.36F
DEL NORTE      NOT AVBL
LA VETA PASS   NOT AVBL
SAGUACHE       NOT AVBL
$$

COZ035-036-038>040-281900-
...NORTHERN COLORADO FRONT RANGE...

CITY           SKY/WX    TMP DP  RH WIND       PRES   REMARKS
DENVER INTL AP FAIR      67  36  31 N12G18    30.28S
DMNS CITY PARK   N/A     66  31  27 N14       30.27F
AURORA         MOSUNNY   64  31  29 NE9       30.30S
FRONT RANGE AP NOT AVBL
ERIE MUNI ARPT NOT AVBL
BOULDER MUN AP NOT AVBL
CENTENNIAL     FAIR      62  32  32 VRB3      30.30S
BROOMFIELD     MOSUNNY   64  30  27 CALM      30.29F
FORT COLLINS   FAIR      69  35  28 N14       30.25F
LONGMONT       NOT AVBL
$$

COZ041-046-047-076>085-087-088-281900-
...PIKES PEAK/PALMER DIVIDE AND SOUTHERN FOOTHILLS...

CITY           SKY/WX    TMP DP  RH WIND       PRES   REMARKS
COLO. SPRINGS  FAIR      65  29  25 NE9       30.32F
A. F. ACADEMY  FAIR      61  27  27 N7        30.32S
SCHRIEVER AFB  FAIR      61  26  26 N8        30.32F
CHEYENNE MTN   FAIR      60  29  31 SE9       30.29S
ELLICOTT       FAIR     N/A N/A N/A NW9       30.31F
FALCON         FAIR      61  27  27 NW10      30.35F
FORT CARSON    FAIR      63  25  23 E7        30.30F
LIMON          FAIR      64  36  35 N9        30.28S
MONUMENT HILL  NOT AVBL
CANON CITY     NOT AVBL
WALSENBURG     FAIR      63  36  36 CALM      30.32F
TRINIDAD       FAIR      64  31  28 NE5       30.31F
$$

COZ042>045-048>051-090-091-281900-
...NORTHEAST COLORADO...

CITY           SKY/WX    TMP DP  RH WIND       PRES   REMARKS
GREELEY ARPT   FAIR      68  36  30 N9        30.24F
AKRON          FAIR      68  40  35 NW12G20   30.23F
BURLINGTON     FAIR      71  42  35 NW16G23   30.21S
WRAY           FAIR      75  34  22 NW13G18   30.18S
YUMA           NOT AVBL
STERLING       NOT AVBL
HOLYOKE        NOT AVBL
FORT MORGAN    FAIR      69  33  26 W3G17     30.23F
$$

COZ086-089-092>099-281900-
...SOUTHEAST COLORADO...

CITY           SKY/WX    TMP DP  RH WIND       PRES   REMARKS
PUEBLO         FAIR      68  32  26 VRB6      30.26F
LA JUNTA       FAIR      70  40  33 MISG      30.24F
LAMAR          FAIR      73  36  25 MISG      30.19F
SPRINGFIELD      N/A     68  40  35 N14G20    30.24F
$$




USA.gov is the U.S. government's official web portal to all federal, state and local government web resources and services.